User: anonymous   Login
Location: Wildcat Hills Observatory
(41.6350°N, 103.6812°W)
Time: 02:29:43
(UTC-06:00)
Language:

Cosmos 1634 Rocket - Orbit

View from above orbital plane
View from above orbital plane
View from above satellite
View from above satellite

Ground track
Ground track

The orbit data is extracted from the following two-line orbital elements,

1 15598U 85022B   14294.83674713  .00000012  00000-0 -27865-5 0  7629
2 15598 082.9346 107.5914 0020907 300.5774 178.2397 13.76490552487102
Epoch (UTC): 21 October 2014 20:04:54
Eccentricity: 0.0020907
inclination: 82.9346°
perigee height: 961 km
apogee height: 992 km
right ascension of ascending node: 107.5914°
argument of perigee: 300.5774°
revolutions per day: 13.76490552
mean anomaly at epoch: 178.2397°
orbit number at epoch: 48710

The dashed part of the orbit path shows where the satellite is in the earth's shadow,  

DLR